TRA9ZV LTAI-EVRA

Flight info

Callsign TRA9ZV
Flight time N/A
Altitude 36000
Route EKNUD UT337 OSVEL UL619 MAKOL L619 ARGES DCT KARIL DCT KEKED DCT KELEL/N0454F370 DCT LOGDA DCT SUWGI M857 BOKSU DCT GUNTA
Aircraft A21N/M-SDE3FGHIRWY/LB1

Departure

Time N/A
Airport Antalya International Airport (LTAI)

Arrival

Time 2026-05-03 20:55
Airport Riga International Airport (EVRA)
Time Latitude Longitude Altitude Speed Heading
2026-05-03 20:15 53.51079 22.54661 37001 ft 449 kts 19°
2026-05-03 20:15 53.56917 22.58342 36998 ft 449 kts 19°
2026-05-03 20:16 53.62776 22.62048 36990 ft 449 kts 19°
2026-05-03 20:16 53.68643 22.65770 36987 ft 449 kts 20°
2026-05-03 20:17 53.74459 22.69470 36987 ft 449 kts 19°
2026-05-03 20:17 53.80289 22.73190 36987 ft 449 kts 20°
2026-05-03 20:18 53.86145 22.76938 36987 ft 450 kts 19°
2026-05-03 20:18 53.91967 22.80675 36985 ft 450 kts 19°
2026-05-03 20:19 53.97783 22.84421 36981 ft 450 kts 19°
2026-05-03 20:19 54.03639 22.88204 36983 ft 450 kts 19°
2026-05-03 20:20 54.09469 22.91983 36978 ft 450 kts 19°
2026-05-03 20:20 54.15265 22.95752 36972 ft 450 kts 19°
2026-05-03 20:21 54.21092 22.99552 36969 ft 451 kts 19°
2026-05-03 20:21 54.26939 23.03349 36965 ft 451 kts 18°
2026-05-03 20:22 54.32929 23.06434 36968 ft 450 kts 12°
2026-05-03 20:22 54.39041 23.08583 36972 ft 449 kts
2026-05-03 20:23 54.45148 23.10529 36965 ft 449 kts
2026-05-03 20:23 54.51268 23.12487 36959 ft 449 kts
2026-05-03 20:24 54.57404 23.14466 36957 ft 450 kts
2026-05-03 20:24 54.63539 23.16455 36953 ft 451 kts
2026-05-03 20:25 54.69710 23.18465 36951 ft 451 kts
2026-05-03 20:25 54.75880 23.20482 36951 ft 451 kts
2026-05-03 20:26 54.82048 23.22506 36947 ft 451 kts
2026-05-03 20:26 54.88197 23.24526 36944 ft 451 kts
2026-05-03 20:27 54.94319 23.26542 36946 ft 452 kts
2026-05-03 20:27 55.00503 23.28590 36938 ft 453 kts
2026-05-03 20:28 55.06683 23.30640 36938 ft 453 kts
2026-05-03 20:28 55.12859 23.32698 36942 ft 453 kts
2026-05-03 20:29 55.19027 23.34759 36941 ft 452 kts
2026-05-03 20:29 55.25230 23.36836 36931 ft 449 kts
2026-05-03 20:30 55.31415 23.38916 36934 ft 447 kts
2026-05-03 20:30 55.37521 23.40976 36929 ft 448 kts
2026-05-03 20:31 55.43674 23.43055 36929 ft 448 kts
2026-05-03 20:31 55.49775 23.45126 36928 ft 447 kts
2026-05-03 20:32 55.55901 23.47212 36929 ft 447 kts
2026-05-03 20:32 55.61964 23.49281 36922 ft 448 kts
2026-05-03 20:33 55.68080 23.51377 36924 ft 448 kts
2026-05-03 20:33 55.74137 23.53461 36755 ft 444 kts
2026-05-03 20:33 55.77159 23.54503 36293 ft 442 kts
2026-05-03 20:34 55.80148 23.55535 35553 ft 445 kts
2026-05-03 20:34 55.83200 23.56586 34731 ft 448 kts
2026-05-03 20:34 55.86227 23.57630 33883 ft 451 kts
2026-05-03 20:34 55.89312 23.58698 33011 ft 454 kts
2026-05-03 20:35 55.92400 23.59768 32104 ft 457 kts
2026-05-03 20:35 55.95521 23.60852 31145 ft 461 kts
2026-05-03 20:35 55.98633 23.61935 30176 ft 465 kts
2026-05-03 20:35 56.01836 23.63053 29148 ft 469 kts
2026-05-03 20:36 56.05011 23.64163 28118 ft 473 kts
2026-05-03 20:36 56.08210 23.65286 27060 ft 477 kts
2026-05-03 20:36 56.11480 23.66435 25942 ft 480 kts
2026-05-03 20:36 56.14726 23.67575 24820 ft 484 kts
2026-05-03 20:37 56.18043 23.68746 24029 ft 479 kts
2026-05-03 20:37 56.21296 23.69900 23546 ft 469 kts
2026-05-03 20:37 56.24447 23.71019 23093 ft 460 kts
2026-05-03 20:37 56.27578 23.72133 22650 ft 451 kts
2026-05-03 20:38 56.30682 23.73236 22205 ft 443 kts
2026-05-03 20:38 56.33671 23.74298 21751 ft 435 kts
2026-05-03 20:38 56.36640 23.74918 21330 ft 420 kts 354°
2026-05-03 20:38 56.39439 23.73703 20865 ft 402 kts 331°
2026-05-03 20:39 56.41601 23.70784 20401 ft 386 kts 309°
2026-05-03 20:39 56.43202 23.66925 19989 ft 377 kts 303°
2026-05-03 20:39 56.44793 23.63215 19571 ft 373 kts 307°
2026-05-03 20:39 56.46480 23.59726 19159 ft 368 kts 309°
2026-05-03 20:40 56.48251 23.56373 18748 ft 364 kts 311°
2026-05-03 20:40 56.50032 23.53166 18349 ft 359 kts 312°
2026-05-03 20:40 56.51819 23.50017 17850 ft 357 kts 312°
2026-05-03 20:40 56.53624 23.46829 17098 ft 361 kts 311°
2026-05-03 20:41 56.55340 23.43527 16359 ft 365 kts 309°
2026-05-03 20:41 56.57105 23.40038 15593 ft 368 kts 309°
2026-05-03 20:41 56.58902 23.36507 14921 ft 368 kts 311°
2026-05-03 20:41 56.61019 23.33655 14567 ft 367 kts 328°
2026-05-03 20:42 56.63331 23.31859 14241 ft 361 kts 333°
2026-05-03 20:42 56.65648 23.30210 13888 ft 355 kts 333°
2026-05-03 20:42 56.67963 23.28558 13487 ft 349 kts 333°
2026-05-03 20:42 56.70208 23.26942 13098 ft 344 kts 334°
2026-05-03 20:43 56.72619 23.26040 12644 ft 352 kts 356°
2026-05-03 20:43 56.75035 23.27189 12229 ft 362 kts 24°
2026-05-03 20:43 56.76978 23.30186 11848 ft 366 kts 46°
2026-05-03 20:43 56.78611 23.33783 11175 ft 371 kts 45°
2026-05-03 20:44 56.80390 23.37192 10115 ft 386 kts 40°
2026-05-03 20:44 56.82426 23.40528 8856 ft 403 kts 37°
2026-05-03 20:44 56.84596 23.43804 7928 ft 408 kts 36°
2026-05-03 20:44 56.86784 23.47061 7560 ft 398 kts 36°
2026-05-03 20:45 56.88957 23.50305 7097 ft 391 kts 36°
2026-05-03 20:45 56.91211 23.53675 5877 ft 405 kts 36°
2026-05-03 20:45 56.93436 23.57019 5217 ft 400 kts 37°
2026-05-03 20:45 56.95616 23.60316 4985 ft 383 kts 37°
2026-05-03 20:46 56.97652 23.63403 4990 ft 362 kts 37°
2026-05-03 20:46 56.99583 23.66174 4974 ft 341 kts 29°
2026-05-03 20:46 57.01668 23.67574 4981 ft 313 kts
2026-05-03 20:46 57.03770 23.67953 4983 ft 292 kts 358°
2026-05-03 20:47 57.05732 23.68154 4994 ft 276 kts 358°
2026-05-03 20:47 57.07596 23.68414 4996 ft 260 kts 359°
2026-05-03 20:47 57.09333 23.68728 4992 ft 253 kts
2026-05-03 20:47 57.11066 23.69086 4975 ft 242 kts
2026-05-03 20:48 57.12704 23.69446 4976 ft 239 kts
2026-05-03 20:48 57.14333 23.70170 4955 ft 247 kts 26°
2026-05-03 20:48 57.15511 23.72446 4965 ft 254 kts 67°
2026-05-03 20:48 57.15777 23.75634 4771 ft 250 kts 101°
2026-05-03 20:49 57.15388 23.78694 4516 ft 238 kts 111°
2026-05-03 20:49 57.14922 23.81497 4224 ft 225 kts 110°
2026-05-03 20:49 57.14520 23.84206 3922 ft 213 kts 108°
2026-05-03 20:49 57.14195 23.86779 3679 ft 201 kts 105°
2026-05-03 20:50 57.13923 23.89210 3446 ft 191 kts 104°
2026-05-03 20:50 57.13675 23.91573 3236 ft 182 kts 104°
2026-05-03 20:50 57.13432 23.93920 3083 ft 200 kts 104°
2026-05-03 20:50 57.13164 23.96495 2851 ft 205 kts 105°
2026-05-03 20:51 57.12588 23.98793 2540 ft 194 kts 138°
2026-05-03 20:51 57.11471 23.99894 2366 ft 169 kts 174°
2026-05-03 20:51 57.10331 24.00057 2361 ft 154 kts 187°
2026-05-03 20:51 57.09240 23.99939 2428 ft 154 kts 190°
2026-05-03 20:52 57.08136 23.99753 2452 ft 154 kts 191°
2026-05-03 20:52 57.07039 23.99561 2476 ft 153 kts 191°
2026-05-03 20:52 57.05946 23.99374 2434 ft 149 kts 191°
2026-05-03 20:52 57.04840 23.99188 2094 ft 149 kts 190°
2026-05-03 20:53 57.03679 23.98993 1988 ft 152 kts 189°
2026-05-03 20:53 57.02516 23.98800 1831 ft 153 kts 189°
2026-05-03 20:53 57.01321 23.98603 1596 ft 153 kts 188°
2026-05-03 20:53 57.00106 23.98403 1363 ft 151 kts 188°
2026-05-03 20:54 56.98943 23.98212 1122 ft 145 kts 188°
2026-05-03 20:54 56.96675 23.97835 695 ft 143 kts 187°
2026-05-03 20:54 56.95550 23.97648 481 ft 143 kts 186°
2026-05-03 20:55 56.94443 23.97462 277 ft 139 kts 186°
2026-05-03 20:55 56.93374 23.97290 62 ft 129 kts 186°
2026-05-03 20:55 56.92551 23.97147 46 ft 84 kts 185°
2026-05-03 20:55 56.92107 23.97080 46 ft 48 kts 185°
2026-05-03 20:56 56.91841 23.97120 46 ft 31 kts 158°
2026-05-03 20:56 56.91747 23.97195 46 ft 8 kts 155°
2026-05-03 20:56 56.91714 23.97282 46 ft 8 kts 100°
2026-05-03 20:56 56.91724 23.97391 46 ft 8 kts 38°
2026-05-03 20:57 56.91789 23.97421 46 ft 9 kts
2026-05-03 20:57 56.91866 23.97434 46 ft 10 kts
2026-05-03 20:57 56.91954 23.97443 46 ft 11 kts
2026-05-03 20:57 56.92051 23.97452 46 ft 12 kts
2026-05-03 20:58 56.92150 23.97470 46 ft 12 kts
2026-05-03 20:58 56.92255 23.97488 46 ft 11 kts
2026-05-03 20:58 56.92334 23.97506 46 ft 9 kts 21°
2026-05-03 20:58 56.92353 23.97574 46 ft 3 kts 96°
2026-05-03 20:59 56.92350 23.97632 46 ft 3 kts 95°
2026-05-03 20:59 56.92350 23.97641 46 ft 1 kts 95°
2026-05-03 20:59 56.92349 23.97661 46 ft 1 kts 106°
2026-05-03 20:59 56.92341 23.97678 46 ft 0 kts 155°
2026-05-03 21:00 56.92336 23.97679 46 ft 1 kts 170°
2026-05-03 21:00 56.92326 23.97682 46 ft 2 kts 171°
2026-05-03 21:00 56.92299 23.97682 46 ft 1 kts 183°
2026-05-03 21:00 56.92294 23.97682 46 ft 0 kts 183°